Burbank, CA

9:42 PM PST on November 17, 2017 (GMT -0800)
Burbank-Glendale-Pasadena

Weather History for KBUR - August, 2014

Change the Weather History Date:

Friday, August 22, 2014

  Actual Average Record
Temperature  
Mean Temperature 76 °F 75 °F  
Max Temperature 85 °F 88 °F 105 °F (1969)
Min Temperature 66 °F 62 °F 52 °F (1947)
Degree Days  
Heating Degree Days 0 0  
Month to date heating degree days 0 0  
Since 1 June heating degree days 0 13  
Since 1 July heating degree days 0 0  
Cooling Degree Days 11 10  
Month to date cooling degree days 257 220  
Year to date cooling degree days 1188 784  
Since 1 June cooling degree days 826 660  
Growing Degree Days 25 (Base 50)    
Moisture  
Dew Point 59 °F    
Average Humidity 57    
Maximum Humidity 87    
Minimum Humidity 26    
Precipitation  
Precipitation 0.00 in 0.00 in 0.00 in (2017)
Month to date precipitation 0.04 0.05  
Year to date precipitation 4.95 12.62  
Since 1 July precipitation 0.04  
Sea Level Pressure  
Sea Level Pressure 29.91 in    
Wind  
Wind Speed 6 mph (SSE)    
Max Wind Speed 14 mph    
Max Gust Speed 17 mph    
Visibility 10 miles    
Events      
T = Trace of Precipitation, MM = Missing Value Source: NWS Daily Summary

Daily Weather History Graph

Daily Weather History Graph

Search for Another Location

Airport or City:

Trip Planner

Search our weather history database for the weather conditions in past years. The results will help you decide how hot, cold, wet, or windy it might be!

Date:

Astronomy

Aug. 22, 2014 Rise Set
Actual Time 6:19 AM PDT 7:32 PM PDT
Civil Twilight 5:53 AM PDT 7:58 PM PDT
Nautical Twilight 5:22 AM PDT 8:29 PM PDT
Astronomical Twilight 4:50 AM PDT 9:01 PM PDT
Moon 3:49 AM PDT (8/22) 5:41 PM PDT (8/22)
Length of Visible Light 14h 04m
Length of Day
13h 12m
Waning Crescent, 7% of the Moon is Illuminated
Aug 22
Waning Crescent
Aug 25
New
Sep 2
First Quarter
Sep 8
Full
Sep 15
Last Quarter

Hourly Weather History & Observations

Time (PDT) Temp. Heat Index Dew Point Humidity Pressure Visibility Wind Dir Wind Speed Gust Speed Precip Events Conditions
12:53 AM 70.0 °F - 59.0 °F 68% 29.92 in 10.0 mi Calm Calm - N/A   Clear
1:53 AM 70.0 °F - 59.0 °F 68% 29.91 in 10.0 mi Calm Calm - N/A   Clear
2:53 AM 69.1 °F - 60.1 °F 73% 29.91 in 10.0 mi SE 4.6 mph - N/A   Clear
3:53 AM 68.0 °F - 60.1 °F 76% 29.91 in 10.0 mi East 3.5 mph - N/A   Clear
4:53 AM 68.0 °F - 60.1 °F 76% 29.89 in 10.0 mi Calm Calm - N/A   Clear
5:53 AM 66.9 °F - 60.1 °F 79% 29.90 in 10.0 mi Calm Calm - N/A   Clear
6:53 AM 66.9 °F - 60.1 °F 79% 29.92 in 10.0 mi SE 5.8 mph - N/A   Clear
7:53 AM 68.0 °F - 60.1 °F 76% 29.92 in 10.0 mi Variable 3.5 mph - N/A   Clear
8:53 AM 71.1 °F - 60.1 °F 68% 29.94 in 10.0 mi SE 5.8 mph - N/A   Clear
9:53 AM 73.9 °F - 59.0 °F 59% 29.94 in 10.0 mi ESE 5.8 mph - N/A   Clear
10:53 AM 78.1 °F - 60.1 °F 54% 29.94 in 10.0 mi South 4.6 mph - N/A   Clear
11:53 AM 80.1 °F 81.1 °F 61.0 °F 52% 29.93 in 10.0 mi South 10.4 mph - N/A   Clear
12:53 PM 82.0 °F 82.7 °F 61.0 °F 49% 29.92 in 10.0 mi South 6.9 mph - N/A   Clear
1:53 PM 82.9 °F 83.3 °F 61.0 °F 47% 29.91 in 10.0 mi South 12.7 mph - N/A   Clear
2:53 PM 84.0 °F 83.8 °F 59.0 °F 43% 29.89 in 10.0 mi South 9.2 mph - N/A   Clear
3:53 PM 82.9 °F 82.6 °F 57.9 °F 42% 29.88 in 10.0 mi South 8.1 mph - N/A   Clear
4:53 PM 84.9 °F 83.3 °F 54.0 °F 34% 29.87 in 10.0 mi South 5.8 mph - N/A   Clear
5:53 PM 82.9 °F - 45.0 °F 26% 29.87 in 10.0 mi South 11.5 mph - N/A   Clear
6:53 PM 77.0 °F - 57.9 °F 52% 29.87 in 10.0 mi South 9.2 mph - N/A   Clear
7:53 PM 72.0 °F - 61.0 °F 68% 29.89 in 10.0 mi SSE 8.1 mph - N/A   Clear
8:53 PM 68.0 °F - 62.1 °F 81% 29.91 in 10.0 mi South 6.9 mph - N/A   Clear
9:53 PM 66.9 °F - 62.1 °F 84% 29.92 in 10.0 mi SSE 5.8 mph - N/A   Clear
10:53 PM 66.9 °F - 62.1 °F 84% 29.92 in 10.0 mi South 3.5 mph - N/A   Clear
11:53 PM 68.0 °F - 62.1 °F 81% 29.92 in 10.0 mi ESE 4.6 mph - N/A   Clear